Domov               UVHVVR             MKGP            O straneh              
ZDRAVSTVENO VARSTVO RASTLIN
  MREŽA AGROMET. POSTAJ
 ► PROGNOSTIČNA OBVESTILA
AGROMETEOROLOŠKI PODATKI -
ARSO
OBVLADOVANJE TVEGANJ ZARADI
NEUGODNIH VREMENSKIH RAZMER
  ► NARAVNE NESREČE
  ► SUŠA/MOČA
  ► NAMAKANJE
  ► ŽLED (gozdarstvo)
KARTOGRAFSKI PRIKAZI
SPLETNE POVEZAVE
PROJEKTI IN PUBLIKACIJE

AGROMETEOROLOŠKA MREŽA: VREMENSKE POSTAJE IN FENOLOŠKA OPAZOVANJA

Pregled podatkov za lokacijo Gabernik-Rogaška, meteorološka postaja 37800

Pregled senzorjev na lokaciji

ID Ime Zadnja
vrednost
Datum
zadnje
spremembe
Tip
senzorja
1826 Temperatura 2 m ( °C) 11,58 °C 21.10.2017 00:30 50YA
1827 Relativna vlaga 2 m (% RH) 78,14 % RH 21.10.2017 00:30 50YA
1828 Omočenost lista (U) 0 U 21.10.2017 00:30 A730WET
1829 Padavine 0.2 mm (mm) 0 mm 21.10.2017 00:30 Rain-O-Matic

Pregled podatkov zadnjih 24 ur

Zap.
št.
Datum in čas Gabernik-Rogaška
Omočenost
lista
Padavine
0.2
mm
Relativna
vlaga
2
m
Temperatura
2
m
0 20.10.2017 23:30 0 0 78,14 11,58
1 20.10.2017 23:00 0 0 76,53 11,94
2 20.10.2017 22:30 0 0 74,77 12,33
3 20.10.2017 22:00 0 0 74,33 12,53
4 20.10.2017 21:30 0 0 77,61 12,09
5 20.10.2017 21:00 0 0 73,16 12,92
6 20.10.2017 20:30 0 0 69,84 13,65
7 20.10.2017 20:00 0 0 68,91 14,02
8 20.10.2017 19:30 0 0 67,03 14,53
9 20.10.2017 19:00 0 0 66,08 14,95
10 20.10.2017 18:30 0 0 66,06 15,24
11 20.10.2017 18:00 0 0 62,98 15,85
12 20.10.2017 17:30 0 0 59,93 16,63
13 20.10.2017 17:00 0 0 56,48 17,83
14 20.10.2017 16:30 0 0 51,36 19,22
15 20.10.2017 16:00 0 0 48,16 20,17
16 20.10.2017 15:30 0 0 46,06 20,76
17 20.10.2017 15:00 0 0 44,69 21,29
18 20.10.2017 14:30 0 0 43,03 21,39
19 20.10.2017 14:00 0 0 42,54 21,39
20 20.10.2017 13:30 0 0 41,61 21,39
21 20.10.2017 13:00 0 0 41,54 21,22
22 20.10.2017 12:30 0 0 43,25 20,66
23 20.10.2017 12:00 0 0 45,3 20,39
24 20.10.2017 11:30 0 0 48,99 19,07
25 20.10.2017 11:00 0 0 55,31 17,7
26 20.10.2017 10:30 0 0 58,53 15,73
27 20.10.2017 10:00 0 0 61,93 14,68
28 20.10.2017 09:30 0 0 64,03 13,72
29 20.10.2017 09:00 0 0 64,05 13,33
30 20.10.2017 08:30 0 0 61,88 13,48
31 20.10.2017 08:00 0 0 62,66 13,24
32 20.10.2017 07:30 0 0 64,66 12,87
33 20.10.2017 07:00 0 0 66,35 12,55
34 20.10.2017 06:30 0 0 66,3 12,63
35 20.10.2017 06:00 0 0 65,01 13,04
36 20.10.2017 05:30 0 0 65,23 13,09
37 20.10.2017 05:00 0 0 65,84 13,02
38 20.10.2017 04:30 0 0 69,55 12,28
39 20.10.2017 04:00 0 0 66,18 12,99
40 20.10.2017 03:30 0 0 64,74 12,92
41 20.10.2017 03:00 0 0 62,44 13,48
42 20.10.2017 02:30 0 0 62,32 13,55
43 20.10.2017 02:00 0 0 63,52 13,33
44 20.10.2017 01:30 0 0 60,29 14,16
© 2011 Ministrstvo za kmetijstvo, gozdarstvo in prehrano. Vse pravice pridržane.